Location: Logan
(41.7360°N, 111.8340°W)
Time: 12:10:35
(UTC-07:00)

Daily predictions for brighter satellites

Satellite Brightness Start Highest point End
(mag) Time Altitude Azimuth Time Altitude Azimuth Time Altitude Azimuth
Cosmos 1346 Rocket 2.9 18:27:55 10° N 18:31:48 53° ENE 18:35:38 10° SSE
Cosmos 2322 Rocket 3.0 18:27:28 10° N 18:32:25 30° NE 18:37:20 10° ESE
Meteor 1-28 Rocket 3.3 18:30:55 10° NNE 18:34:40 58° E 18:38:24 10° S
Okean 2 Rocket 3.4 18:33:32 10° SSE 18:37:46 43° E 18:42:00 10° NNE
COSMO-SKYMED 1 2.6 18:34:41 10° NNE 18:39:03 86° E 18:43:24 10° SSW
ALOS 3.2 18:39:49 10° SE 18:43:44 28° ENE 18:47:42 10° N
PSLV R/B 4.3 18:41:32 10° W 18:44:29 37° SSW 18:47:26 10° SE
SL-8 R/B 3.7 18:44:18 10° WNW 18:49:08 88° NNE 18:53:59 10° ESE
H-2A R/B 4.2 18:46:56 10° ESE 18:49:19 16° ENE 18:51:42 10° NNE
Cosmos 1833 Rocket 4.1 18:44:53 10° SW 18:50:08 40° WNW 18:55:26 10° N
CENTAUR R/B 3.2 18:45:40 10° NW 18:53:36 88° ENE 19:02:00 10° SSE
Cosmos 1745 Rocket 4.0 18:48:02 10° S 18:54:18 70° E 19:00:34 10° NNE
Cosmos 2151 Rocket 4.3 18:51:48 10° SSE 18:55:46 32° E 18:59:47 10° NNE
ATLAS CENTAUR R/B 3.7 18:54:16 10° W 18:57:58 23° NW 19:01:30 10° N
Cosmos 1812 2.9 18:55:01 10° N 18:58:45 47° ENE 19:02:28 10° SSE
NOSS 2-2 (E) 3.6 18:57:21 10° SW 19:01:25 81° NW 19:06:10 10° NE
BREEZE-M DEB (TANK) 2.9 19:00:10 10° NW 19:02:16 28° NNE 19:04:21 16° ENE
FENGYUN 3A 3.9 18:58:39 10° SE 19:03:46 45° ENE 19:08:54 10° N
Cosmos 44 Rocket 3.2 19:04:00 10° NNW 19:08:47 87° WSW 19:13:27 10° SSE
Cosmos 1386 Rocket 4.4 19:05:04 10° S 19:11:10 71° E 19:17:12 10° NNE
DELTA 2 R/B (1) 3.7 19:06:15 10° W 19:11:51 72° S 19:15:51 19° E
NOSS 2-2 (D) 4.0 19:17:11 10° SW 19:21:11 61° NW 19:25:51 10° NNE
BREEZE-M DEB (TANK) 3.5 19:12:04 10° WNW 19:21:34 81° SW 19:23:47 21° SE
Tiangong 2 0.9 19:19:04 10° W 19:22:09 77° N 19:23:09 38° E
Cosmos 1461 3.2 19:19:39 10° NNW 19:23:28 41° NE 19:25:02 28° ESE
SJ-6B 3.1 19:20:03 10° S 19:24:07 74° WSW 19:28:07 10° NNW
Meteor 1-18 Rocket 4.3 19:20:39 10° NNW 19:26:13 80° W 19:31:48 10° S
Cosmos 2292 Rocket 4.0 19:21:55 10° S 19:26:23 61° E 19:32:28 10° NNE
Cosmos 2360 Rocket 2.9 19:21:36 10° N 19:26:40 33° ENE 19:28:48 25° E
SL-19 R/B 4.3 19:21:47 10° SSE 19:27:19 66° ENE 19:33:09 10° N
Cosmos 1980 Rocket 3.8 19:22:13 10° NW 19:27:24 37° WSW 19:32:35 10° S
Helios 1A 3.7 19:29:01 30° E 19:29:41 32° ENE 19:33:24 10° N
Cosmos 2219 Rocket 4.2 19:29:22 10° NNE 19:30:39 11° NE 19:30:39 11° NE
Cosmos 676 Rocket 4.1 19:26:47 10° S 19:31:45 48° ESE 19:36:45 10° NNE
Cosmos 407 Rocket 3.4 19:28:01 10° S 19:33:12 74° ESE 19:38:30 10° NNE
ERBS 4.1 19:32:39 10° WNW 19:35:46 31° SW 19:38:52 10° SSE
SAR-Lupe-4 3.8 19:36:02 43° ENE 19:36:06 43° ENE 19:39:30 10° N
Cosmos 1833 4.5 19:35:40 10° S 19:41:01 43° ESE 19:43:59 24° NE
Cosmos 44 3.3 19:37:11 10° NW 19:41:36 65° WSW 19:45:18 13° SSE
FengYun 1-2 T 4.2 19:36:33 10° SSE 19:42:02 85° WSW 19:47:34 10° NNW
Resurs 01 Rocket 1.5 19:39:21 10° SSE 19:43:45 88° ENE 19:48:12 10° NNW
Cosmos 2333 Rocket 4.2 19:42:21 10° NNE 19:43:50 12° NE 19:43:50 12° NE
Meteor 1-19 Rocket 4.3 19:40:05 10° N 19:45:38 55° ENE 19:50:48 12° SSE
GEOS 3 Rocket 4.3 19:42:10 10° NNE 19:47:16 55° NW 19:52:23 10° SW
Cosmos 1536 Rocket 3.6 19:43:13 10° N 19:47:42 84° W 19:52:09 10° S
Okean 1 4.0 19:49:17 10° NNW 19:53:16 56° W 19:57:15 10° S
BREEZE-M DEB (TANK) 3.8 19:51:02 10° NW 19:54:10 49° NNE 19:55:42 38° ENE
Cosmos 2181 Rocket 3.9 19:48:36 10° N 19:54:50 79° E 20:01:09 10° S
Cosmos 1190 Rocket 4.5 19:50:49 10° SSW 19:55:56 60° WNW 20:01:06 10° NNE
Meteor 1-13 Rocket 4.0 19:50:54 10° N 19:56:27 78° E 20:02:03 10° SSE
SL-16 R/B 2.7 19:50:58 10° NNW 19:56:34 61° WSW 20:02:07 10° S
Helios 1B rocket 3.8 20:04:10 27° S 20:04:10 27° S 20:06:07 10° S
Cosmos 1633 2.6 19:59:34 10° S 20:02:59 74° SW 20:02:59 74° SW
DNEPR-1 R/B 3.9 19:59:28 10° NW 20:03:39 58° WSW 20:05:11 35° S
Cosmos 1140 Rocket 3.4 20:01:32 10° S 20:06:34 61° ESE 20:06:34 61° ESE
Spot 2 Rocket 4.0 20:02:18 10° S 20:07:16 60° WSW 20:12:17 10° NNW
Cosmos 1340 2.9 20:04:04 10° NNW 20:07:51 67° W 20:08:18 59° SW
CZ-2D R/B 3.4 20:07:46 65° SW 20:08:08 72° WSW 20:11:58 10° NNW
Resurs 1-3 4.3 20:09:23 10° S 20:13:39 52° W 20:17:57 10° NNW
Meteor 1-23 Rocket 4.3 20:10:08 10° N 20:15:43 59° ENE 20:15:43 59° ENE
Cosmos 2322 Rocket 3.4 20:11:19 10° NW 20:16:32 40° WSW 20:21:43 10° S
Cosmos 2184 Rocket 3.9 20:10:50 10° S 20:17:02 59° E 20:23:13 10° NNE
Cosmos 2074 Rocket 3.9 20:13:30 10° S 20:19:39 65° E 20:25:52 10° NNE
ALOS 4.1 20:16:58 10° SSW 20:21:05 30° W 20:25:13 10° NNW
Envisat 3.7 20:24:57 40° NNE 20:24:57 40° NNE 20:28:19 10° N
H-2A R/B 4.3 20:20:56 16° SSW 20:23:21 32° W 20:26:44 10° NNW
Cosmos 1300 Rocket 4.1 20:19:08 10° SSW 20:23:26 56° W 20:27:49 10° N
Cosmos 2322 3.5 20:18:31 10° NNW 20:24:17 80° ENE 20:24:35 77° ESE
Cosmos 1954 Rocket 4.2 20:20:00 10° SSW 20:25:08 69° WNW 20:28:17 24° N
SL-08 ROCKET BODY 4.3 20:21:00 10° S 20:27:08 82° E 20:33:22 10° N
Meteor 1-11 Rocket 4.0 20:24:19 10° SSW 20:30:00 67° WNW 20:35:53 10° N
Meteor 2-4 Rocket 3.6 20:25:55 10° N 20:31:33 85° W 20:32:01 76° SSW
COSMOS 2428 3.5 20:28:23 10° NNW 20:32:15 39° NNE 20:32:15 39° NNE
USA 229 DEB 4.2 20:34:33 10° NNW 20:40:45 45° NNE 20:40:45 45° NNE
USA 229 4.2 20:34:40 10° NNW 20:40:50 45° NNE 20:40:50 45° NNE
Cosmos 1818 4.4 20:39:27 10° SW 20:44:42 48° NW 20:46:01 40° NNW
Cosmos 2237 Rocket 4.3 20:46:46 10° N 20:48:10 16° N 20:48:10 16° N
DELTA 2 R/B (1) 4.5 20:52:38 10° W 20:56:38 43° WSW 20:56:38 43° WSW
Cosmos 2360 Rocket 3.4 21:05:31 10° NW 21:10:38 38° WSW 21:10:38 38° WSW
Cosmos 2219 Rocket 4.1 21:10:32 10° NNW 21:12:24 21° NNW 21:12:24 21° NNW
Cosmos 2333 Rocket 4.3 21:24:16 10° NNW 21:25:51 19° NNW 21:25:51 19° NNW
